Location: Katowice
(50.2611°N, 19.0242°E)
Time: 13:46:23
(UTC+02:00)

Explorer 7 - Pass Details

Date: 02 September 2019
Orbit: 485 x 680 km, 50.3° (Epoch: 23 September)

Event Time Altitude Azimuth Distance (km) Brightness Sun altitude
Rises 07:21:25 0° 242° (WSW) 3,027 10.1 12.2°
Reaches altitude 10° 07:23:48 10° 239° (WSW) 2,115 9.4 12.5°
Maximum altitude 07:28:39 63° 159° (SSE) 756 7.9 13.3°
Drops below altitude 10° 07:33:25 10° 79° (E) 2,078 11.7 14.1°
Sets 07:35:44 0° 76° (ENE) 2,968 12.0 14.4°
